When you browse on this site, cookies collect data to enhance your experience and personalize the content and advertising you see.
Visit our Privacy Policy to learn more. By continuing to use the site, you agree to this use of cookies and data.
  • în România
  • Lista ţărilor
  • Pe 7 zile
  • Temperatura apei
  • Meteo pe hartă
  • Widget-uri
  • user-avatar
    Intrare

    Meteo pe oră la Eisenstadt

    Astăzi, 2 Iunie, Marţi

    Timp Temperatura Precipitaţii Vânt Presiune Umiditate
    00:00 +12°C° 0 mm 3 m/s 723 mmHg 84%
    01:00 +12°C° 0 mm 3 m/s 723 mmHg 86%
    02:00 +11°C° 0 mm 3 m/s 722 mmHg 87%
    03:00 +10°C° 0 mm 3 m/s 722 mmHg 89%
    04:00 +10°C° 0 mm 3 m/s 722 mmHg 90%
    05:00 +11°C° 0 mm 3 m/s 722 mmHg 82%
    06:00 +13°C° 0 mm 4 m/s 722 mmHg 74%
    07:00 +15°C° 0 mm 4 m/s 722 mmHg 67%
    08:00 +16°C° 0 mm 5 m/s 722 mmHg 61%
    09:00 +17°C° 0 mm 6 m/s 722 mmHg 56%
    10:00 +19°C° 0 mm 6 m/s 721 mmHg 50%
    11:00 +19°C° 0.4 mm 6 m/s 721 mmHg 56%
    12:00 +17°C° 0.4 mm 6 m/s 721 mmHg 62%
    13:00 +17°C° 0.4 mm 6 m/s 720 mmHg 68%
    14:00 +17°C° 0.4 mm 6 m/s 720 mmHg 66%
    15:00 +17°C° 0.4 mm 6 m/s 720 mmHg 63%
    16:00 +17°C° 0.4 mm 6 m/s 719 mmHg 61%
    17:00 +16°C° 0.1 mm 5 m/s 719 mmHg 66%
    18:00 +15°C° 0.1 mm 4 m/s 719 mmHg 70%
    19:00 +14°C° 0.1 mm 3 m/s 719 mmHg 74%
    20:00 +13°C° 0 mm 3 m/s 719 mmHg 79%
    21:00 +13°C° 0 mm 2 m/s 719 mmHg 83%
    22:00 +12°C° 0 mm 2 m/s 719 mmHg 87%
    23:00 +12°C° 0.4 mm 2 m/s 718 mmHg 88%

    Mâine, 3 Iunie, Miercuri

    Timp Temperatura Precipitaţii Vânt Presiune Umiditate
    00:00 +12°C° 0.4 mm 2 m/s 718 mmHg 89%
    01:00 +12°C° 0.4 mm 2 m/s 718 mmHg 90%
    02:00 +12°C° 0.1 mm 2 m/s 718 mmHg 90%
    03:00 +10°C° 0.1 mm 2 m/s 717 mmHg 90%
    04:00 +10°C° 0.1 mm 2 m/s 717 mmHg 90%
    05:00 +12°C° 0 mm 2 m/s 716 mmHg 86%
    06:00 +14°C° 0 mm 2 m/s 716 mmHg 81%
    07:00 +16°C° 0 mm 2 m/s 716 mmHg 77%
    08:00 +17°C° 0.4 mm 3 m/s 716 mmHg 71%
    09:00 +18°C° 0.4 mm 3 m/s 716 mmHg 66%
    10:00 +20°C° 0.4 mm 3 m/s 716 mmHg 61%
    11:00 +20°C° 0.6 mm 3 m/s 716 mmHg 60%
    12:00 +20°C° 0.6 mm 3 m/s 715 mmHg 58%
    13:00 +21°C° 0.6 mm 3 m/s 715 mmHg 57%
    14:00 +20°C° 0.5 mm 3 m/s 715 mmHg 60%
    15:00 +20°C° 0.5 mm 3 m/s 714 mmHg 63%
    16:00 +19°C° 0.5 mm 2 m/s 714 mmHg 67%
    17:00 +18°C° 0.2 mm 2 m/s 714 mmHg 71%
    18:00 +18°C° 0.2 mm 1 m/s 714 mmHg 75%
    19:00 +15°C° 0.2 mm 0 m/s 713 mmHg 78%
    20:00 +15°C° 0 mm 1 m/s 714 mmHg 81%
    21:00 +14°C° 0 mm 1 m/s 714 mmHg 84%
    22:00 +13°C° 0 mm 2 m/s 714 mmHg 86%
    23:00 +13°C° 0 mm 2 m/s 713 mmHg 87%

    Poimâine, 4 Iunie, Joi

    Timp Temperatura Precipitaţii Vânt Presiune Umiditate
    00:00 +12°C° 0 mm 1 m/s 713 mmHg 88%
    01:00 +12°C° 0 mm 1 m/s 712 mmHg 89%
    02:00 +12°C° 0 mm 1 m/s 712 mmHg 90%
    03:00 +11°C° 0 mm 1 m/s 712 mmHg 91%
    04:00 +11°C° 0 mm 1 m/s 711 mmHg 92%
    05:00 +12°C° 0 mm 1 m/s 711 mmHg 89%
    06:00 +14°C° 0 mm 1 m/s 711 mmHg 85%
    07:00 +15°C° 0 mm 1 m/s 711 mmHg 82%
    08:00 +17°C° 0 mm 2 m/s 711 mmHg 75%
    09:00 +19°C° 0 mm 2 m/s 711 mmHg 68%
    10:00 +21°C° 0 mm 3 m/s 711 mmHg 61%
    11:00 +22°C° 0.1 mm 3 m/s 711 mmHg 60%
    12:00 +22°C° 0.1 mm 3 m/s 711 mmHg 59%
    13:00 +23°C° 0.1 mm 4 m/s 710 mmHg 58%
    14:00 +23°C° 0.3 mm 5 m/s 710 mmHg 59%
    15:00 +23°C° 0.3 mm 5 m/s 710 mmHg 59%
    16:00 +23°C° 0.3 mm 6 m/s 709 mmHg 60%
    17:00 +21°C° 0 mm 6 m/s 709 mmHg 63%
    18:00 +20°C° 0 mm 6 m/s 708 mmHg 66%
    19:00 +17°C° 0 mm 6 m/s 708 mmHg 69%
    20:00 +17°C° 0 mm 7 m/s 708 mmHg 68%
    21:00 +17°C° 0 mm 8 m/s 708 mmHg 67%
    22:00 +16°C° 0 mm 8 m/s 708 mmHg 66%
    23:00 +16°C° 0 mm 7 m/s 708 mmHg 69%

    5 Iunie, Vineri

    Timp Temperatura Precipitaţii Vânt Presiune Umiditate
    00:00 +15°C° 0 mm 6 m/s 708 mmHg 72%
    01:00 +15°C° 0 mm 5 m/s 708 mmHg 75%
    02:00 +14°C° 0 mm 4 m/s 708 mmHg 79%
    03:00 +14°C° 0 mm 3 m/s 708 mmHg 83%
    04:00 +14°C° 0 mm 2 m/s 708 mmHg 87%
    05:00 +15°C° 0.1 mm 2 m/s 708 mmHg 86%
    06:00 +16°C° 0.1 mm 3 m/s 708 mmHg 85%
    07:00 +15°C° 0.1 mm 4 m/s 708 mmHg 84%
    08:00 +16°C° 0.7 mm 3 m/s 709 mmHg 85%
    09:00 +16°C° 0.7 mm 3 m/s 709 mmHg 86%
    10:00 +16°C° 0.7 mm 3 m/s 709 mmHg 87%
    11:00 +16°C° 3 mm 3 m/s 710 mmHg 89%
    12:00 +14°C° 3 mm 3 m/s 710 mmHg 90%
    13:00 +13°C° 3 mm 3 m/s 710 mmHg 92%
    14:00 +13°C° 0.4 mm 3 m/s 711 mmHg 91%
    15:00 +13°C° 0.4 mm 3 m/s 712 mmHg 90%
    16:00 +13°C° 0.4 mm 3 m/s 712 mmHg 89%
    17:00 +13°C° 0 mm 2 m/s 712 mmHg 89%
    18:00 +13°C° 0 mm 2 m/s 713 mmHg 88%
    19:00 +13°C° 0 mm 1 m/s 713 mmHg 87%
    20:00 +13°C° 0 mm 1 m/s 714 mmHg 88%
    21:00 +13°C° 0 mm 1 m/s 715 mmHg 89%
    22:00 +12°C° 0 mm 1 m/s 715 mmHg 90%
    23:00 +12°C° 0 mm 1 m/s 716 mmHg 90%

    6 Iunie, Sâmbătă

    Timp Temperatura Precipitaţii Vânt Presiune Umiditate
    00:00 +12°C° 0 mm 1 m/s 716 mmHg 90%
    01:00 +12°C° 0 mm 1 m/s 716 mmHg 89%
    02:00 +11°C° 0 mm 1 m/s 716 mmHg 89%
    03:00 +11°C° 0 mm 1 m/s 716 mmHg 88%
    04:00 +11°C° 0 mm 1 m/s 717 mmHg 87%
    05:00 +13°C° 0 mm 1 m/s 717 mmHg 80%
    06:00 +14°C° 0 mm 1 m/s 718 mmHg 74%
    07:00 +16°C° 0 mm 1 m/s 718 mmHg 68%
    08:00 +18°C° 0 mm 2 m/s 718 mmHg 61%
    09:00 +19°C° 0 mm 3 m/s 718 mmHg 54%
    10:00 +21°C° 0 mm 4 m/s 719 mmHg 47%
    11:00 +21°C° 0 mm 4 m/s 718 mmHg 46%
    12:00 +22°C° 0 mm 4 m/s 718 mmHg 45%
    13:00 +23°C° 0 mm 5 m/s 718 mmHg 45%
    14:00 +23°C° 0 mm 5 m/s 717 mmHg 46%
    15:00 +23°C° 0 mm 5 m/s 717 mmHg 47%
    16:00 +23°C° 0 mm 5 m/s 717 mmHg 49%
    17:00 +21°C° 0 mm 4 m/s 717 mmHg 57%
    18:00 +20°C° 0 mm 3 m/s 716 mmHg 64%
    19:00 +18°C° 0 mm 3 m/s 716 mmHg 72%
    20:00 +17°C° 0 mm 2 m/s 716 mmHg 75%
    21:00 +16°C° 0 mm 2 m/s 717 mmHg 78%
    22:00 +15°C° 0 mm 2 m/s 717 mmHg 81%
    23:00 +14°C° 0.1 mm 2 m/s 717 mmHg 83%

    7 Iunie, Duminică

    Timp Temperatura Precipitaţii Vânt Presiune Umiditate
    00:00 +14°C° 0.1 mm 2 m/s 717 mmHg 85%
    01:00 +14°C° 0.1 mm 1 m/s 717 mmHg 87%
    02:00 +13°C° 0.1 mm 1 m/s 717 mmHg 89%
    03:00 +13°C° 0.1 mm 1 m/s 716 mmHg 91%
    04:00 +13°C° 0.1 mm 1 m/s 716 mmHg 93%
    05:00 +14°C° 0 mm 1 m/s 717 mmHg 89%
    06:00 +15°C° 0 mm 1 m/s 717 mmHg 85%
    07:00 +18°C° 0 mm 1 m/s 717 mmHg 81%
    08:00 +18°C° 0 mm 2 m/s 717 mmHg 76%
    09:00 +19°C° 0 mm 2 m/s 717 mmHg 72%
    10:00 +20°C° 0 mm 2 m/s 717 mmHg 67%
    11:00 +21°C° 0.2 mm 3 m/s 717 mmHg 64%
    12:00 +22°C° 0.2 mm 3 m/s 716 mmHg 62%
    13:00 +24°C° 0.2 mm 3 m/s 716 mmHg 59%
    14:00 +24°C° 0.5 mm 3 m/s 716 mmHg 62%
    15:00 +24°C° 0.5 mm 3 m/s 715 mmHg 65%
    16:00 +23°C° 0.5 mm 4 m/s 715 mmHg 68%
    17:00 +22°C° 0 mm 3 m/s 715 mmHg 71%
    18:00 +20°C° 0 mm 3 m/s 715 mmHg 74%
    19:00 +19°C° 0 mm 3 m/s 715 mmHg 77%
    20:00 +18°C° 0.4 mm 3 m/s 715 mmHg 80%
    21:00 +17°C° 0.4 mm 3 m/s 716 mmHg 84%
    22:00 +16°C° 0.4 mm 3 m/s 716 mmHg 88%
    23:00 +14°C° 0.1 mm 3 m/s 716 mmHg 88%
    Arată mai mult